Location: Saint-Br�vin-les-Pins
(47.2500°N, 2.1670°W)
Time: 16:07:19
(UTC+02:00)

ISS - Visible Passes

Search period start: 22 July 2024 00:00
Search period end: 01 August 2024 00:00
Orbit: 409 x 423 km, 51.6° (Epoch: 22 July)

Date Brightness Start Highest point End Pass type
(mag) Time Alt. Az. Time Alt. Az. Time Alt. Az.
22 Jul -3.6 23:00:55 10° WNW 23:04:13 69° NNE 23:07:05 13° ESE visible
23 Jul -2.0 00:37:58 10° W 00:39:58 22° WSW 00:39:58 22° WSW visible
23 Jul -3.0 23:49:12 10° WNW 23:52:18 38° SW 23:53:03 33° S visible
24 Jul -3.6 23:00:31 10° WNW 23:03:48 60° SSW 23:06:08 17° SE visible
25 Jul -1.8 23:49:19 10° W 23:51:33 17° SW 23:52:07 16° SSW visible
26 Jul -2.3 23:00:14 10° W 23:03:04 26° SW 23:05:15 14° SSE visible
28 Jul -1.2 23:00:51 10° WSW 23:02:00 11° SW 23:03:09 10° SSW visible
